Regional Weather Roundup
Issued by NWS

Home | Current Version | Previous Version | Text Only | Print | Product List | Glossary Off
Versions: 1 2 3 4 5 6 7 8 9 10 11 12 13 14 15 16 17 18 19 20 21 22 23 24 25 26 27 28 29 30 31 32 33 34 35 36 37 38 39 40 41 42 43 44 45 46 47 48 49 50

000
ASUS45 KPSR 220100
RWRAZ

PRELIMINARY ARIZONA REGIONAL HOURLY WEATHER ROUNDUP
NATIONAL WEATHER SERVICE PHOENIX AZ
600 PM MST SUN DEC 21 2014

NOTE: FAIR INDICATES FEW OR NO CLOUDS BELOW 12,000 FEET WITH NO
SIGNIFICANT WEATHER AND/OR OBSTRUCTIONS TO VISIBILITY.

AZZ001>003-036-220200-
NORTHWEST ARIZONA

CITY           SKY/WX    TMP DP  RH WIND       PRES   REMARKS
KINGMAN        MOCLDY    43  36  76 N3        30.09R
$$

AZZ004>008-015-016-018-220200-
NORTH CENTRAL ARIZONA

CITY           SKY/WX    TMP DP  RH WIND       PRES   REMARKS
GRAND CANYON   CLOUDY    36  31  82 SW3       30.10F
PRESCOTT       MOCLDY    49  33  54 CALM      30.09R
FLAGSTAFF      NOT AVBL
PAYSON         MOCLDY    46  34  61 W7        30.07F
PAGE           CLOUDY    44  31  60 CALM      30.02R
$$

AZZ009>014-017-220200-
NORTHEAST ARIZONA

CITY           SKY/WX    TMP DP  RH WIND       PRES   REMARKS
WINSLOW        NOT AVBL
SAINT JOHNS    CLOUDY    43  30  60 CALM      30.03S
WINDOW ROCK    MOCLDY    41  30  65 SW5       30.02S
$$

AZZ023-220200-
GREATER PHOENIX AREA

CITY           SKY/WX    TMP DP  RH WIND       PRES   REMARKS
PHOENIX        CLOUDY    60  42  51 SW3       30.03S
GLENDALE       MOCLDY    57  43  58 CALM      30.05S
LUKE AFB       MOCLDY    58  42  53 S7        30.03S
DEER VALLEY    MOCLDY    58  39  49 SW5       30.03S
SCOTTSDALE     MOCLDY    58  40  51 CALM      30.05S
MESA-FALCON    MOCLDY    57  37  47 W5        30.03F
MESA-GATEWAY   PTCLDY    57  41  54 CALM      30.05F
CHANDLER       MOCLDY    57  41  54 CALM      30.04F
$$

AZZ027-028-220200-
SOUTHWEST MARICOPA COUNTY AND PINAL COUNTY

CITY           SKY/WX    TMP DP  RH WIND       PRES   REMARKS
CASA GRANDE    MOCLDY    55  39  54 MISG      30.05F
GILA BEND      FAIR      58  43  57 CALM      30.05F
$$

AZZ503-504-507>509-220200-
SOUTHEAST ARIZONA

CITY           SKY/WX    TMP DP  RH WIND       PRES   REMARKS
TUCSON         MOCLDY    57  36  45 CALM      30.07R
DAVIS-MONTHAN  MOCLDY    55  38  54 NW2       30.05R
RYAN FIELD       N/A     57  41  54 W3        30.07R
NOGALES        PTCLDY    56  32  40 N3        30.06R
SIERRA VISTA   PTCLDY    50  32  50 W7        30.07R
SAFFORD        PTCLDY    53  33  46 NW6       30.00S
$$

AZZ020-021-025-026-031-220200-
SOUTHWEST ARIZONA

CITY           SKY/WX    TMP DP  RH WIND       PRES   REMARKS
YUMA           MOCLDY   N/A N/A N/A N5        30.03F
$$

CAZ031-033-041-043-047-048-061-220200-
SOUTHERN CALIFORNIA

CITY           SKY/WX    TMP DP  RH WIND       PRES   REMARKS
DOWNTOWN L.A.  CLOUDY    62  54  74 CALM      30.04S HAZE
L.A. AIRPORT   CLOUDY    61  56  83 W9        30.04F HAZE
SAN DIEGO      MOCLDY    63  55  75 NW7       30.06R
BURBANK        CLOUDY    68  47  46 N9G21     30.03F
ONTARIO        MOCLDY    63  49  60 S3        30.05S
RIVERSIDE      MOCLDY    62  49  62 CALM      30.05S HAZE
PALM SPRINGS   CLOUDY    64  46  52 CALM      30.07S
EL CENTRO NAS  MOCLDY    63  46  54 CALM      30.04S
IMPERIAL       MOCLDY    65  48  54 CALM      30.03F
BLYTHE         CLOUDY    59  48  67 S3        30.04F
$$

NVZ020-UTZ003-220200-
SOUTHERN NEVADA-UTAH

CITY           SKY/WX    TMP DP  RH WIND       PRES   REMARKS
LAS VEGAS      NOT AVBL
SALT LAKE CITY CLOUDY    43  40  89 SE8       29.93R
$$

NMZ009-TXZ055-220200-
NEW MEXICO-WEST TEXAS

CITY           SKY/WX    TMP DP  RH WIND       PRES   REMARKS
ALBUQUERQUE    MOCLDY    46  29  51 N8        29.92F
EL PASO        MOCLDY    60  26  27 W20G29    29.89F
$$


........................KEY........................
SKY/WX - SKY CONDITION/WEATHER
TMP    - TEMPERATURE IN FAHRENHEIT
DP     - DEW POINT IN FAHRENHEIT
RH     - RELATIVE HUMIDITY IN PERCENT
WIND   - DIRECTION AND SPEED IN MILES PER HOUR (MPH)
VRB    - VARIABLE WIND DIRECTION
PRES   - MEAN SEA LEVEL PRESSURE IN INCHES OF MERCURY
         F - FALLING PRESSURE   R - RISING PRESSURE
         S - STEADY PRESSURE
VSB    - VISIBILITY IN MILES
HX     - HEAT INDEX IN FAHRENHEIT
WCI    - WIND CHILL INDEX IN FAHRENHEIT
TC     - TEMPERATURE IN CELSIUS WHICH IS ALSO KNOWN AS
         TEMPERATURE IN CENTIGRADE
AFB    - AIR FORCE BASE
         LUKE AFB IS LUKE AIR FORCE BASE
         DAVIS-MONTHAN IS DAVIS-MONTHAN AIR FORCE BASE
NAS    - NAVAL AIR STATION
         EL CENTRO NAS IS EL CENTRO NAVAL AIR STATION
N/A    - NOT AVAILABLE



USA.gov is the U.S. government's official web portal to all federal, state and local government web resources and services.